Tracking 31011 objects as of 13-Jul-2025
HD Live streaming from Space Station
objects crossing your sky now

CZ-6A DEB

Track CZ-6A DEB now!
10-day predictions


NORAD ID: 54393
Int'l Code: 2022-151DR
Perigee: 813.4 km
Apogee: 1,283.5 km
Inclination: 98.5 °
Period: 106.0 minutes
Semi major axis: 7419 km
RCS: Unknown
Launch date: November 11, 2022
Source: People's Republic of China (PRC)
Launch site: Taiyaun Space Center, China (TSC)

Note: This is SATELLITE DEBRIS
Your satellite tracking list
Your tracking list is empty




NASA's NSSDC Master Catalog

Two Line Element Set (TLE):
1 54393U 22151DR  25193.96368711 -.00000399  00000-0 -36201-3 0  9994
2 54393  98.5480  87.9126 0316816  74.8278 288.7669 13.58462903131938
Source of the keplerian elements: AFSPC